TimePDT,TemperatureF,Dew PointF,Humidity,Sea Level PressureIn,VisibilityMPH,Wind Direction,Wind SpeedMPH,Gust SpeedMPH,PrecipitationIn,Events,Conditions,WindDirDegrees,DateUTC
12:53 AM,59.0,53.1,81,30.07,10.0,NW,6.9,-,N/A,,Clear,320,2013-08-01 07:53:00
1:40 AM,57.2,51.8,82,30.08,10.0,Calm,Calm,-,N/A,,Mostly Cloudy,0,2013-08-01 08:40:00
1:53 AM,57.9,53.1,84,30.09,10.0,North,5.8,-,N/A,,Overcast,350,2013-08-01 08:53:00
2:15 AM,59.0,51.8,77,30.09,10.0,North,3.5,-,N/A,,Overcast,10,2013-08-01 09:15:00
2:53 AM,59.0,52.0,78,30.07,10.0,North,6.9,-,N/A,,Overcast,10,2013-08-01 09:53:00
3:53 AM,59.0,52.0,78,30.07,10.0,Calm,Calm,-,N/A,,Overcast,0,2013-08-01 10:53:00
4:53 AM,60.1,52.0,75,30.07,10.0,NNE,3.5,-,N/A,,Overcast,30,2013-08-01 11:53:00
5:53 AM,59.0,53.1,81,30.08,10.0,Calm,Calm,-,N/A,,Overcast,0,2013-08-01 12:53:00
6:50 AM,57.2,53.6,88,30.09,10.0,Calm,Calm,-,N/A,,Overcast,0,2013-08-01 13:50:00
6:53 AM,57.0,54.0,89,30.09,10.0,Calm,Calm,-,N/A,,Overcast,0,2013-08-01 13:53:00
7:53 AM,57.0,55.0,93,30.09,4.0,Calm,Calm,-,N/A,,Overcast,0,2013-08-01 14:53:00
8:04 AM,57.2,55.4,94,30.09,6.0,Calm,Calm,-,N/A,,Overcast,0,2013-08-01 15:04:00
8:33 AM,57.2,55.4,94,30.09,10.0,Calm,Calm,-,N/A,,Overcast,0,2013-08-01 15:33:00
8:53 AM,59.0,55.0,87,30.09,10.0,Variable,3.5,-,N/A,,Overcast,0,2013-08-01 15:53:00
9:26 AM,59.0,53.6,82,30.09,10.0,Calm,Calm,-,N/A,,Overcast,0,2013-08-01 16:26:00
9:53 AM,59.0,55.0,87,30.09,6.0,Calm,Calm,-,N/A,,Overcast,0,2013-08-01 16:53:00
10:12 AM,57.2,55.4,94,30.09,2.0,Calm,Calm,-,N/A,,Overcast,0,2013-08-01 17:12:00
10:14 AM,57.2,55.4,94,30.09,1.8,Calm,Calm,-,N/A,,Overcast,0,2013-08-01 17:14:00
10:29 AM,57.2,55.4,94,30.09,1.5,Calm,Calm,-,N/A,,Overcast,0,2013-08-01 17:29:00
10:36 AM,57.2,55.4,94,30.09,1.8,Calm,Calm,-,N/A,,Overcast,0,2013-08-01 17:36:00
10:53 AM,59.0,57.0,93,30.09,2.0,Calm,Calm,-,N/A,,Overcast,0,2013-08-01 17:53:00
11:17 AM,59.0,57.2,94,30.09,2.5,Calm,Calm,-,0.01,,Overcast,0,2013-08-01 18:17:00
11:36 AM,59.0,57.2,94,30.10,3.0,Calm,Calm,-,0.01,,Overcast,0,2013-08-01 18:36:00
11:43 AM,59.0,57.2,94,30.10,2.5,Calm,Calm,-,0.01,,Overcast,0,2013-08-01 18:43:00
11:48 AM,59.0,57.2,94,30.10,1.8,Calm,Calm,-,0.01,,Overcast,0,2013-08-01 18:48:00
11:53 AM,59.0,57.0,93,30.10,1.2,Calm,Calm,-,0.01,Rain,Light Rain,0,2013-08-01 18:53:00
12:06 PM,59.0,57.2,94,30.10,2.0,Calm,Calm,-,0.01,Rain,Light Rain,0,2013-08-01 19:06:00
12:14 PM,60.8,57.2,88,30.10,5.0,Calm,Calm,-,0.01,,Overcast,0,2013-08-01 19:14:00
12:53 PM,61.0,55.9,83,30.10,10.0,Calm,Calm,-,0.01,,Overcast,0,2013-08-01 19:53:00
1:09 PM,62.6,55.4,77,30.10,10.0,Calm,Calm,-,N/A,,Overcast,0,2013-08-01 20:09:00
1:44 PM,62.6,55.4,77,30.10,10.0,Calm,Calm,-,N/A,,Overcast,0,2013-08-01 20:44:00
1:53 PM,63.0,55.9,78,30.10,10.0,Calm,Calm,-,N/A,,Overcast,0,2013-08-01 20:53:00
2:53 PM,64.0,55.9,75,30.10,10.0,South,3.5,-,N/A,,Overcast,190,2013-08-01 21:53:00
3:53 PM,64.9,55.0,70,30.09,10.0,Calm,Calm,-,N/A,,Overcast,0,2013-08-01 22:53:00
4:36 PM,66.2,53.6,64,30.08,10.0,South,3.5,-,N/A,,Overcast,170,2013-08-01 23:36:00
4:53 PM,66.0,55.0,68,30.08,10.0,Calm,Calm,-,N/A,,Overcast,0,2013-08-01 23:53:00
5:53 PM,64.9,55.9,73,30.08,8.0,NE,4.6,-,0.00,Rain,Light Rain,50,2013-08-02 00:53:00
6:21 PM,62.6,57.2,82,30.09,9.0,East,3.5,-,0.02,Rain,Light Rain,80,2013-08-02 01:21:00
6:53 PM,62.1,57.9,86,30.09,9.0,East,5.8,-,0.02,,Overcast,100,2013-08-02 01:53:00
7:37 PM,62.6,57.2,82,30.09,10.0,Calm,Calm,-,N/A,,Overcast,0,2013-08-02 02:37:00
7:53 PM,63.0,59.0,87,30.09,7.0,East,4.6,-,0.00,Rain,Light Rain,90,2013-08-02 02:53:00
8:21 PM,62.6,57.2,82,30.09,10.0,East,3.5,-,0.00,,Overcast,90,2013-08-02 03:21:00
8:53 PM,63.0,57.9,84,30.09,10.0,ESE,4.6,-,0.00,,Overcast,120,2013-08-02 03:53:00
9:53 PM,63.0,57.0,81,30.10,10.0,Calm,Calm,-,N/A,,Overcast,0,2013-08-02 04:53:00
10:53 PM,63.0,57.9,84,30.10,10.0,WNW,4.6,-,N/A,,Overcast,290,2013-08-02 05:53:00
11:53 PM,62.1,57.0,84,30.11,10.0,West,3.5,-,N/A,,Overcast,270,2013-08-02 06:53:00